This is the latest recevied weather packets stored in our database for station/object PA3BWK. If no packets are shown the sender has not sent any weather packets the latest 10 day(s).
| Time | Temp. | Humidity | Pressure | Rain* | Wind** | Luminosity | Snow |
|---|---|---|---|---|---|---|---|
| 1777373644 | 16.67° C | 45% | 1024.3 hPa | 0 mm | - | 758 W/m² | - |
| 1777373584 | 16.67° C | 47% | 1024.4 hPa | 0 mm | - | 756 W/m² | - |
| 1777373523 | 16.67° C | 47% | 1024.4 hPa | 0 mm | - | 754 W/m² | - |
| 1777373464 | 16.67° C | 48% | 1024.2 hPa | 0 mm | - | 756 W/m² | - |
| 1777373404 | 16.67° C | 47% | 1024.3 hPa | 0 mm | - | 754 W/m² | - |
| 1777373344 | 16.67° C | 46% | 1024.2 hPa | 0 mm | - | 753 W/m² | - |
| 1777373285 | 16.67° C | 46% | 1024.2 hPa | 0 mm | - | 751 W/m² | - |
| 1777373224 | 16.67° C | 47% | 1024.2 hPa | 0 mm | - | 749 W/m² | - |
| 1777373166 | 16.67° C | 47% | 1024.2 hPa | 0 mm | - | 751 W/m² | - |
| 1777373103 | 16.67° C | 46% | 1024.2 hPa | 0 mm | - | 749 W/m² | - |
| 1777373044 | 16.67° C | 46% | 1024.3 hPa | 0 mm | - | 751 W/m² | - |
| 1777372984 | 16.67° C | 47% | 1024.3 hPa | 0 mm | - | 751 W/m² | - |
| 1777372924 | 16.67° C | 47% | 1024.1 hPa | 0 mm | - | 747 W/m² | - |
| 1777372864 | 16.67° C | 46% | 1024.3 hPa | 0 mm | - | 747 W/m² | - |
| 1777372806 | 16.67° C | 46% | 1024.4 hPa | 0 mm | - | 747 W/m² | - |
| 1777372743 | 16.67° C | 46% | 1024.4 hPa | 0 mm | - | 746 W/m² | - |
| 1777372683 | 16.11° C | 47% | 1024.2 hPa | 0 mm | - | 746 W/m² | - |
| 1777372623 | 16.11° C | 47% | 1024.2 hPa | 0 mm | - | 747 W/m² | - |
| 1777372566 | 16.11° C | 48% | 1024.2 hPa | 0 mm | - | 747 W/m² | - |
| 1777372504 | 16.11° C | 48% | 1024.2 hPa | 0 mm | - | 746 W/m² | - |
| 1777372446 | 16.11° C | 48% | 1024.3 hPa | 0 mm | - | 744 W/m² | - |
| 1777372384 | 16.11° C | 48% | 1024.2 hPa | 0 mm | - | 747 W/m² | - |
| 1777372324 | 16.11° C | 48% | 1024.2 hPa | 0 mm | - | 746 W/m² | - |
| 1777372264 | 16.11° C | 48% | 1024.3 hPa | 0 mm | - | 744 W/m² | - |
| 1777372206 | 16.11° C | 48% | 1024.3 hPa | 0 mm | - | 744 W/m² | - |
* Rain latest hour (hover to see other rain measurements)
** Current wind speed in m/s (hover to see current wind gust speed)